TimeMST,TemperatureF,Dew PointF,Humidity,Sea Level PressureIn,VisibilityMPH,Wind Direction,Wind SpeedMPH,Gust SpeedMPH,PrecipitationIn,Events,Conditions,WindDirDegrees,DateUTC
12:15 AM,26.6,19.4,74,30.30,10.0,NNE,5.8,-,N/A,,Clear,20,2012-11-19 07:15:00
12:35 AM,26.6,19.4,74,30.29,10.0,NNE,3.5,-,N/A,,Clear,20,2012-11-19 07:35:00
12:55 AM,24.8,15.8,69,30.29,10.0,North,3.5,-,N/A,,Clear,360,2012-11-19 07:55:00
1:15 AM,26.6,17.6,69,30.29,10.0,North,6.9,-,N/A,,Clear,10,2012-11-19 08:15:00
1:35 AM,24.8,15.8,69,30.30,10.0,NNE,8.1,-,N/A,,Clear,20,2012-11-19 08:35:00
1:55 AM,26.6,17.6,69,30.30,10.0,NNE,6.9,-,N/A,,Clear,30,2012-11-19 08:55:00
2:15 AM,26.6,17.6,69,30.30,10.0,NNE,8.1,-,N/A,,Clear,20,2012-11-19 09:15:00
2:35 AM,26.6,17.6,69,30.30,10.0,NNE,8.1,-,N/A,,Clear,30,2012-11-19 09:35:00
2:55 AM,26.6,17.6,69,30.30,10.0,North,4.6,-,N/A,,Clear,360,2012-11-19 09:55:00
3:15 AM,24.8,15.8,69,30.31,10.0,North,4.6,-,N/A,,Clear,360,2012-11-19 10:15:00
3:35 AM,23.0,15.8,74,30.30,10.0,North,3.5,-,N/A,,Clear,10,2012-11-19 10:35:00
3:55 AM,19.4,12.2,74,30.31,10.0,North,5.8,-,N/A,,Clear,360,2012-11-19 10:55:00
4:15 AM,19.4,10.4,68,30.32,10.0,North,8.1,-,N/A,,Clear,360,2012-11-19 11:15:00
4:35 AM,21.2,14.0,74,30.33,10.0,North,6.9,-,N/A,,Clear,10,2012-11-19 11:35:00
4:55 AM,21.2,15.8,80,30.33,10.0,NNE,5.8,-,N/A,,Clear,20,2012-11-19 11:55:00
5:15 AM,23.0,15.8,74,30.34,10.0,NNE,9.2,-,N/A,,Clear,20,2012-11-19 12:15:00
5:35 AM,23.0,17.6,80,30.33,10.0,Calm,Calm,-,N/A,,Clear,0,2012-11-19 12:35:00
5:55 AM,24.8,19.4,80,30.33,10.0,ENE,3.5,-,N/A,,Clear,60,2012-11-19 12:55:00
6:35 AM,23.0,15.8,74,30.34,10.0,NE,3.5,-,N/A,,Clear,50,2012-11-19 13:35:00
6:55 AM,19.4,12.2,74,30.34,10.0,North,6.9,-,N/A,,Clear,360,2012-11-19 13:55:00
7:15 AM,19.4,14.0,80,30.35,10.0,North,8.1,-,N/A,,Clear,360,2012-11-19 14:15:00
7:35 AM,19.4,14.0,80,30.36,10.0,North,4.6,-,N/A,,Clear,360,2012-11-19 14:35:00
7:55 AM,21.2,15.8,80,30.37,10.0,Calm,Calm,-,N/A,,Clear,0,2012-11-19 14:55:00
8:15 AM,26.6,21.2,80,30.38,10.0,NNW,3.5,-,N/A,,Clear,330,2012-11-19 15:15:00
8:35 AM,32.0,21.2,64,30.39,10.0,Calm,Calm,-,N/A,,Clear,0,2012-11-19 15:35:00
8:55 AM,35.6,21.2,56,30.39,10.0,Calm,Calm,-,N/A,,Clear,0,2012-11-19 15:55:00
9:15 AM,39.2,24.8,56,30.39,10.0,Calm,Calm,-,N/A,,Clear,0,2012-11-19 16:15:00
9:35 AM,42.8,24.8,49,30.39,10.0,West,3.5,-,N/A,,Clear,260,2012-11-19 16:35:00
9:55 AM,44.6,24.8,46,30.39,10.0,Calm,Calm,-,N/A,,Clear,0,2012-11-19 16:55:00
10:15 AM,44.6,24.8,46,30.39,10.0,Calm,Calm,-,N/A,,Clear,0,2012-11-19 17:15:00
10:35 AM,46.4,24.8,43,30.39,10.0,Calm,Calm,-,N/A,,Clear,0,2012-11-19 17:35:00
10:55 AM,48.2,24.8,40,30.38,10.0,NW,5.8,-,N/A,,Clear,320,2012-11-19 17:55:00
11:15 AM,48.2,23.0,37,30.37,10.0,Calm,Calm,-,N/A,,Clear,0,2012-11-19 18:15:00
11:35 AM,48.2,21.2,34,30.36,10.0,Calm,Calm,-,N/A,,Clear,0,2012-11-19 18:35:00
11:55 AM,51.8,23.0,33,30.35,10.0,North,4.6,-,N/A,,Clear,360,2012-11-19 18:55:00
12:15 PM,51.8,21.2,30,30.35,10.0,NW,3.5,-,N/A,,Clear,310,2012-11-19 19:15:00
12:35 PM,53.6,21.2,28,30.34,10.0,NNW,5.8,-,N/A,,Clear,340,2012-11-19 19:35:00
12:55 PM,53.6,17.6,24,30.33,10.0,WNW,4.6,-,N/A,,Clear,290,2012-11-19 19:55:00
1:15 PM,53.6,19.4,26,30.33,10.0,West,3.5,-,N/A,,Clear,270,2012-11-19 20:15:00
1:35 PM,53.6,17.6,24,30.33,10.0,West,3.5,-,N/A,,Clear,280,2012-11-19 20:35:00
1:55 PM,55.4,15.8,21,30.32,10.0,Calm,Calm,-,N/A,,Clear,0,2012-11-19 20:55:00
2:15 PM,-9999,-9999,N/A,30.32,-9999.0,Calm,Calm,-,N/A,,Unknown,0,2012-11-19 21:15:00
2:35 PM,57.2,10.4,16,30.32,10.0,West,3.5,-,N/A,,Clear,280,2012-11-19 21:35:00
2:55 PM,55.4,10.4,17,30.31,10.0,West,5.8,-,N/A,,Clear,270,2012-11-19 21:55:00
3:15 PM,55.4,8.6,15,30.31,10.0,West,8.1,-,N/A,,Clear,260,2012-11-19 22:15:00
3:35 PM,55.4,15.8,21,30.32,10.0,West,6.9,-,N/A,,Clear,270,2012-11-19 22:35:00
3:55 PM,55.4,15.8,21,30.32,10.0,West,6.9,-,N/A,,Clear,270,2012-11-19 22:55:00
4:15 PM,53.6,17.6,24,30.33,10.0,WSW,6.9,-,N/A,,Clear,250,2012-11-19 23:15:00
4:35 PM,50.0,15.8,26,30.33,10.0,WSW,4.6,-,N/A,,Clear,250,2012-11-19 23:35:00
4:55 PM,48.2,15.8,27,30.34,10.0,WSW,5.8,-,N/A,,Clear,240,2012-11-19 23:55:00
5:15 PM,46.4,8.6,22,30.34,10.0,SW,5.8,-,N/A,,Clear,230,2012-11-20 00:15:00
5:35 PM,46.4,17.6,32,30.35,10.0,Calm,Calm,-,N/A,,Clear,0,2012-11-20 00:35:00
5:55 PM,37.4,10.4,33,30.36,10.0,ESE,4.6,-,N/A,,Clear,120,2012-11-20 00:55:00
6:15 PM,35.6,12.2,38,30.36,10.0,East,10.4,-,N/A,,Clear,80,2012-11-20 01:15:00
6:35 PM,37.4,14.0,38,30.36,10.0,ENE,8.1,-,N/A,,Clear,70,2012-11-20 01:35:00
6:55 PM,33.8,12.2,41,30.37,10.0,East,6.9,-,N/A,,Clear,80,2012-11-20 01:55:00
7:15 PM,33.8,12.2,41,30.36,10.0,East,8.1,-,N/A,,Clear,80,2012-11-20 02:15:00
7:35 PM,33.8,15.8,48,30.36,10.0,East,9.2,-,N/A,,Clear,80,2012-11-20 02:35:00
8:15 PM,33.8,14.0,44,30.37,10.0,NNE,4.6,-,N/A,,Clear,30,2012-11-20 03:15:00
8:35 PM,30.2,10.4,44,30.37,10.0,NNE,6.9,-,N/A,,Clear,20,2012-11-20 03:35:00
8:55 PM,30.2,12.2,47,30.38,10.0,NNE,6.9,-,N/A,,Clear,20,2012-11-20 03:55:00
9:15 PM,30.2,12.2,47,30.38,10.0,NNE,5.8,-,N/A,,Clear,20,2012-11-20 04:15:00
9:35 PM,30.2,12.2,47,30.38,10.0,NNE,5.8,-,N/A,,Clear,20,2012-11-20 04:35:00
9:55 PM,28.4,12.2,51,30.38,10.0,Calm,Calm,-,N/A,,Clear,0,2012-11-20 04:55:00
10:15 PM,26.6,12.2,55,30.38,10.0,Calm,Calm,-,N/A,,Clear,0,2012-11-20 05:15:00
10:35 PM,26.6,12.2,55,30.38,10.0,North,4.6,-,N/A,,Clear,350,2012-11-20 05:35:00
10:55 PM,26.6,12.2,55,30.38,10.0,Calm,Calm,-,N/A,,Clear,0,2012-11-20 05:55:00
11:15 PM,21.2,10.4,63,30.38,10.0,Calm,Calm,-,N/A,,Clear,0,2012-11-20 06:15:00
11:35 PM,23.0,8.6,54,30.39,10.0,North,5.8,-,N/A,,Clear,360,2012-11-20 06:35:00
11:55 PM,24.8,10.4,54,30.39,10.0,WNW,3.5,-,N/A,,Clear,290,2012-11-20 06:55:00